Ricardo Xhaka

Chefscout - Grasshopper
19 Nov 2028
Sonntag
Verarbeitung

Persönlichkeit

Anpassungsfähigkeit (10) Ehrgeiz (5) Kontroverse (11) Loyalität (6) Druck (6) Professionalität (6) Fairness (20) Temperament (4)

Profil

Trainerstil Demokratisch
Lizenz Kontinentale C
Entschlossenheit 9
Menschenführung 11
Motivation 9
Disziplin 6
Arbeitszufriedenheit
100%
Ermüdung
0%
Rolle Chefscout
Gehalt 28.4K p/W
Vertrag 14.03.2030

Leistung

Verhalten Gut
Trainingseffektivität
45%
Spielerentwicklung
30%
Verletzungsprävention
30%
Taktische Umsetzung
45%

Letzte Ereignisse

Nahm an einer Scouting-Besprechung teil jetzt
Nahm an einer Scouting-Besprechung teil jetzt
Nahm an einer Scouting-Besprechung teil 7T her
Nahm an einer Scouting-Besprechung teil 7T her
Empfahl ein Transferziel 7T her
Empfahl ein Transferziel 7T her
Empfahl ein Transferziel 14T her
Empfahl ein Transferziel 14T her

Aktuell beobachtet

158
Spieler Verein Status Fähigkeit Vertrauen Beobachtet Zuletzt beobachtet Letzte Stimme
Sergio Córdova Young Boys Verloren 112 / 127 72% 1 24.07.2028 -
Jake Evans Crewe Alexandra Aktiv 109 / 117 40% 4 30.05.2028 -
Eli Junior Kroupi Bournemouth Aktiv 140 / 150 40% 6 30.05.2028 -
Tyler Fletcher Rotherham United Aktiv 108 / 127 40% 2 30.05.2028 -
Ryan McAidoo Oldham Athletic Aktiv 118 / 119 40% 6 29.05.2028 -
Kerim Alajbegović Modena Aktiv 139 / 145 40% 4 29.05.2028 -
André Miranda Porto Aktiv 120 / 119 40% 2 28.05.2028 -
Gabe Forsyth Colchester United Aktiv 116 / 117 40% 6 27.05.2028 -
Oskar Pietuszewski Estrela da Amadora Aktiv 136 / 138 40% 4 27.05.2028 Beobachten
Rio Ngumoha Plymouth Argyle Aktiv 142 / 152 40% 4 27.05.2028 -
Lennart Karl TSG Hoffenheim Aktiv 139 / 140 40% 7 25.05.2028 -
Fletcher Boyd Accrington Stanley Aktiv 99 / 106 40% 1 25.05.2028 -
Luca Williams-Barnett Walsall Aktiv 123 / 124 40% 9 23.05.2028 -
Suleman Sani Werder Bremen Aktiv 137 / 140 40% 4 21.05.2028 Beobachten
Honest Ahanor Atalanta Aktiv 139 / 135 40% 4 21.05.2028 -
Ben Broggio Mansfield Town Aktiv 107 / 108 40% 6 20.05.2028 -
Jorge Salinas Racing Santander Aktiv 130 / 139 40% 4 19.05.2028 -
Amin Nabizada Exeter City Aktiv 112 / 124 40% 6 19.05.2028 -
Gabriel Mec Feirense Aktiv 131 / 131 40% 6 17.05.2028 -
Mustafa Hekimoğlu Antalyaspor Aktiv 128 / 140 40% 3 16.05.2028 -
Ryan Kavuma-McQueen Accrington Stanley Aktiv 123 / 135 40% 7 14.05.2028 -
Christos Mouzakitis Hull City Aktiv 142 / 136 40% 3 13.05.2028 -
Shea Lacey Crystal Palace Aktiv 136 / 142 40% 1 13.05.2028 -
Aarón Ochoa Málaga Aktiv 117 / 120 40% 5 10.05.2028 -
Babis Kostoulas Oxford United Aktiv 145 / 152 40% 6 10.05.2028 -
Leo Pecover Swindon Town Aktiv 101 / 107 40% 2 10.05.2028 -
Josh Nichols Oldham Athletic Aktiv 116 / 130 40% 5 05.05.2028 -
Omar Khedr Gillingham Aktiv 115 / 113 40% 2 05.05.2028 -
Otto Stange Borussia Mönchengladbach Aktiv 130 / 122 40% 3 04.05.2028 -
Oscar Schwartau Norwich City Aktiv 129 / 132 40% 6 01.05.2028 -
Ibrahim Fullah Charlton Athletic Aktiv 125 / 130 40% 6 01.05.2028 -
Ryunosuke Sato Eibar Aktiv 130 / 139 40% 4 25.04.2028 -
Luca Meirelles Kudrivka Aktiv 132 / 114 40% 1 23.04.2028 -
Rémi Himbert AC Ajaccio Aktiv 118 / 126 40% 3 22.04.2028 -
Igor Tyjon Barrow AFC Aktiv 113 / 116 40% 4 22.04.2028 -
Siyabonga Mabena Bidvest Wits Aktiv 112 / 123 40% 2 18.04.2028 -
Trey Nyoni Rotherham United Aktiv 136 / 143 40% 4 13.04.2028 -
Gorka Gorosabel Real Sociedad Aktiv 117 / 129 40% 3 13.04.2028 -
Henrique Carmo Sochi Aktiv 131 / 141 40% 1 10.04.2028 -
Eduardo Fernandes Benfica Aktiv 122 / 128 40% 1 07.04.2028 -
Gomolemo Kekana Maritzburg United Aktiv 112 / 117 40% 5 12.03.2028 -
Nana Nuhu WAFA Aktiv 97 / 82 40% 1 04.03.2028 -
Matias Siltanen Malmo FF Aktiv 126 / 113 40% 1 01.03.2028 -
Lander Astiazarán Real Sociedad Aktiv 107 / 116 40% 2 28.02.2028 -
Ruben Ramos LA Galaxy Aktiv 99 / 101 40% 1 28.02.2028 -
Esquerdinha Notts County Aktiv 123 / 126 40% 1 17.02.2028 -
Lewis Orford Crewe Alexandra Aktiv 114 / 113 40% 1 12.02.2028 -
Christ Wawa Gefle Aktiv 93 / 125 40% 1 08.02.2028 -
Olivier Mambwa Young Boys Verloren 112 / 118 40% 1 24.01.2028 -
Juan Camilo Córdoba Deportivo Pereira Aktiv 89 / 86 40% 1 05.01.2028 -
Josh Acheampong Everton Aktiv 136 / 138 40% 1 05.01.2028 -
Mao Hosoya Santos Aktiv 134 / 135 67% 1 01.01.2028 Befürworten
Daniel Idoko Ikorodu City Aktiv 85 / 109 40% 1 31.12.2027 -
Zane Albarus Shrewsbury Town Aktiv 104 / 101 40% 1 31.12.2027 -
Federico Matarán Giana Erminio Aktiv 91 / 110 40% 2 28.06.2027 -
Sascha Britschgi AC Milan Aktiv 116 / 128 40% 2 28.06.2027 -
Godwin Oham Warri Wolves Aktiv 85 / 85 40% 1 28.06.2027 -
Tommaso Cecotti Carpi Aktiv 95 / 91 40% 1 03.06.2027 -
Brooke Norton-Cuffy Hull City Aktiv 131 / 129 40% 7 28.05.2027 -
Kristoffer Lund Birmingham Aktiv 123 / 124 40% 1 28.05.2027 -
Romelle Donovan Brentford Aktiv 123 / 132 40% 1 28.05.2027 -
Riley Owen Stevenage Aktiv 99 / 117 40% 1 27.05.2027 -
Toby Collyer West Bromwich Albion Aktiv 129 / 137 40% 6 25.05.2027 -
Milan van Ewijk Coventry City Aktiv 134 / 131 40% 5 23.05.2027 -
Calum Agius Crewe Alexandra Aktiv 91 / 96 40% 2 23.05.2027 -
Lewis Bate Stockport County Aktiv 124 / 112 40% 1 23.05.2027 -
Ethan Pye Stockport County Aktiv 113 / 127 40% 4 21.05.2027 -
Jack Currie Oxford United Aktiv 122 / 126 40% 3 21.05.2027 -
Leo Castledine Middlesbrough Aktiv 128 / 134 40% 3 21.05.2027 -
Sanel Šaljić Austria Wien Aktiv 114 / 127 40% 1 21.05.2027 -
Florentino Luís Ipswich Town Aktiv 146 / 149 40% 7 19.05.2027 Beobachten
Joel Bagan Cardiff City Aktiv 110 / 112 40% 9 19.05.2027 -
Max Bird Birmingham Aktiv 138 / 139 40% 5 19.05.2027 -
Welington Southampton Aktiv 131 / 136 40% 2 18.05.2027 -
Alfie Gilchrist West Bromwich Albion Aktiv 123 / 131 40% 1 18.05.2027 -
Shea Charles Southampton Aktiv 130 / 137 40% 4 15.05.2027 -
Bosun Lawal Stoke City Aktiv 131 / 137 40% 6 15.05.2027 -
Dennis Cirkin Queens Park Rangers Aktiv 135 / 136 40% 4 13.05.2027 -
Samuele di Benedetto Twente Aktiv 119 / 127 40% 3 13.05.2027 -
Víctor Guzmán Sporting CP Aktiv 94 / 102 40% 2 13.05.2027 -
Gabriele Bertolini Vicenza Aktiv 102 / 109 40% 3 12.05.2027 -
Asanele Bonani Chippa United Aktiv 98 / 91 40% 1 12.05.2027 -
Lucas Ferreira Shakhtar Aktiv 130 / 122 40% 1 12.05.2027 -
Lewis Ferguson Bologna Aktiv 148 / 139 40% 4 10.05.2027 -
Darlin Yongwa Norwich City Aktiv 126 / 116 40% 4 09.05.2027 -
Jonathan Varane Queens Park Rangers Aktiv 121 / 132 40% 2 09.05.2027 -
Max Johnston Derby County Aktiv 130 / 120 40% 4 09.05.2027 -
Luke McNally Bristol City Aktiv 133 / 132 40% 8 06.05.2027 -
Lee Buchanan Sheffield Wednesday Aktiv 118 / 120 40% 2 06.05.2027 -
Pelle Mattsson Norwich City Aktiv 124 / 135 40% 2 06.05.2027 -
Jacob Greaves Ipswich Town Aktiv 142 / 128 40% 2 05.05.2027 -
Harry Clarke Preston Aktiv 130 / 136 40% 5 04.05.2027 -
Ryan Oné Sheffield United Aktiv 115 / 126 40% 1 04.05.2027 -
Terry Devlin Portsmouth Aktiv 121 / 114 40% 1 01.05.2027 -
Alexander Prass TSG Hoffenheim Aktiv 137 / 132 40% 5 30.04.2027 -
Zakaria El Ouahdi Hamburger SV Aktiv 130 / 137 40% 4 30.04.2027 -
Aidan Morris Middlesbrough Aktiv 126 / 120 40% 5 29.04.2027 -
Jacques Ekomié Wrexham Aktiv 133 / 141 40% 5 26.04.2027 -
Derry Murkin Derby County Aktiv 134 / 118 40% 2 26.04.2027 -
Bence Dárdai VfL Wolfsburg Aktiv 137 / 124 40% 1 26.04.2027 -
Oliver Skipp Leicester City Aktiv 126 / 125 40% 3 22.04.2027 -
Max Rosenfelder SC Freiburg Aktiv 130 / 142 40% 2 14.04.2027 -
Harrison Burrows Sheffield United Aktiv 120 / 132 40% 1 11.04.2027 -
Habib Diarra Sunderland Aktiv 141 / 136 40% 2 05.04.2027 -
Alfie Doughty Millwall Aktiv 125 / 121 40% 2 03.04.2027 -
Tariq Lamptey Queens Park Rangers Aktiv 137 / 132 40% 1 02.04.2027 -
Max Arfsten Middlesbrough Aktiv 122 / 136 40% 1 30.03.2027 -
Enrico Delprato Parma Aktiv 144 / 135 40% 2 22.03.2027 -
Japhet Tanganga Sheffield United Aktiv 137 / 141 40% 1 22.03.2027 -
Adis Jašić Zamalek Aktiv 124 / 113 40% 1 16.03.2027 -
Brian De Keersmaecker Oxford United Aktiv 118 / 113 40% 1 16.03.2027 -
Johnly Yfeko Exeter City Aktiv 105 / 112 40% 1 12.03.2027 -
Alessandro Buongiorno Cagliari Aktiv 149 / 154 40% 1 06.03.2027 -
Samuel Edozie Southampton Aktiv 131 / 133 40% 1 05.03.2027 -
Marcelo Allende Mamelodi Sundowns Aktiv 124 / 129 40% 2 04.03.2027 -
Juan Bezerra Zamalek Aktiv 123 / 128 40% 1 03.03.2027 -
Oswin Appollis Orlando Pirates Aktiv 135 / 123 40% 1 03.03.2027 -
Isaiah Jones Luton Town Aktiv 128 / 122 40% 3 02.03.2027 -
Ilyas Ansah Hull City Aktiv 137 / 143 40% 1 02.03.2027 -
Bazoumana Touré Newcastle United Aktiv 140 / 138 40% 1 02.03.2027 -
Peter Federico Gornik Zabrze Aktiv 134 / 133 40% 2 28.02.2027 -
Scott Twine Bristol City Aktiv 116 / 129 40% 1 28.02.2027 -
Jason Knight Bristol City Aktiv 134 / 122 40% 1 26.02.2027 -
Jack Rudoni Coventry City Aktiv 131 / 142 40% 2 25.02.2027 -
Cian Ashford Cardiff City Aktiv 123 / 113 40% 2 25.02.2027 -
Mohamed-Ali Cho Hull City Aktiv 134 / 127 40% 2 20.02.2027 -
Nathan Moriah-Welsh Mansfield Town Aktiv 106 / 111 40% 1 20.02.2027 -
Derensili Sanches Fernandes Huddersfield Town Aktiv 118 / 124 40% 1 14.02.2027 -
Nicolas Madsen Queens Park Rangers Aktiv 129 / 127 40% 1 14.02.2027 -
Armstrong Oko-Flex Levski Aktiv 119 / 110 40% 1 12.02.2027 -
Jack Diamond Stockport County Aktiv 120 / 127 40% 1 12.02.2027 -
Raoul Bellanova Atalanta Aktiv 144 / 148 40% 1 08.02.2027 -
Matt O'Riley Brighton Aktiv 142 / 142 40% 1 08.02.2027 -
Finn Azaz Southampton Aktiv 138 / 119 40% 2 06.02.2027 -
Serge-Philippe Raux-Yao Rapid Wien Aktiv 123 / 117 40% 3 04.02.2027 -
Petter Nosa Dahl Rapid Wien Aktiv 120 / 118 40% 1 12.01.2027 -
Peter Shalulile Mamelodi Sundowns Aktiv 134 / 115 40% 1 12.01.2027 -
Sampson Dweh Mallorca Aktiv 133 / 134 66% 1 01.01.2027 Befürworten
Lee Tae-Suk Austria Wien Aktiv 126 / 130 40% 3 11.12.2026 -
Abubakr Barry Red Bull Salzburg Aktiv 124 / 126 40% 5 10.12.2026 -
Lebogang Manyama SuperSport United Aktiv 110 / 110 40% 1 10.12.2026 -
Cheick Mamadou Diabaté Wolfsberger AC Aktiv 123 / 131 40% 1 21.11.2026 -
Metinho Basel Aktiv 125 / 140 40% 1 20.11.2026 Mehr Infos nötig
Dara O'Shea Ipswich Town Aktiv 132 / 128 40% 1 20.11.2026 -
Armin Gigović Young Boys Aktiv 129 / 123 40% 1 19.11.2026 -
Boris Matić Red Bull Salzburg Aktiv 122 / 114 40% 2 08.11.2026 -
Mattia Zanotti Young Boys Aktiv 125 / 138 40% 1 08.11.2026 -
Paul Koller Sturm Graz Aktiv 110 / 112 40% 2 07.11.2026 -
Carlo Boukhalfa St. Gallen Aktiv 116 / 114 40% 1 07.11.2026 -
Fabian Wohlmuth Wolfsberger AC Aktiv 108 / 112 40% 1 05.11.2026 -
Tom Gaal St. Gallen Aktiv 117 / 122 40% 1 04.11.2026 -
Isaac Schmidt Young Boys Aktiv 119 / 127 40% 1 04.11.2026 -
Jordy Makengo SC Freiburg Aktiv 129 / 138 40% 1 02.11.2026 -
Bendegúz Bolla Rapid Wien Aktiv 131 / 128 40% 1 05.10.2026 -
Benjamin Böckle Altach Aktiv 109 / 118 40% 1 05.10.2026 -
Youssoufa Moukoko FC Copenhagen Aktiv 136 / 131 40% 1 31.08.2026 -
Ryan Gauld Vancouver Whitecaps Aktiv 127 / 118 40% 1 26.08.2026 -
Julian Niehues Heidenheim Aktiv 115 / 118 40% 1 01.08.2026 -